OH2HCY Weather Reports


time (UTC)temp
C
wind
direction
speed
KPH
gust
KPH
rain 1hr
cm
rain 24hr
cm
rain mn
cm
humidity
%
barometer
mb
20260506135820 11 253 8.0 22.5 0.00 0.00 0.00 30 1009.8
20260506134915 11 228 9.7 19.3 0.00 0.00 0.00 32 1010.0
20260506133948 11 195 8.0 20.9 0.00 0.00 0.00 37 1009.9
20260506133030 10 180 9.7 20.9 0.00 0.00 0.00 40 1010.1
20260506132140 10 186 8.0 22.5 0.00 0.00 0.00 41 1010.2
20260506131225 10 212 11.3 22.5 0.00 0.00 0.00 42 1010.3
20260506130357 11 240 8.0 17.7 0.00 0.00 0.00 36 1010.1
20260506125455 10 244 9.7 22.5 0.00 0.00 0.00 25 1010.3
20260506124535 10 272 8.0 17.7 0.00 0.00 0.00 25 1010.2
20260506123640 10 289 11.3 27.4 0.00 0.00 0.00 27 1010.1
20260506122740 10 330 9.7 20.9 0.00 0.00 0.00 27 1010.1
20260506121855 11 301 6.4 22.5 0.00 0.00 0.00 26 1009.9
20260506121004 10 320 6.4 17.7 0.00 0.00 0.00 25 1009.9
20260506120110 11 294 8.0 19.3 0.00 0.00 0.00 24 1009.7
20260506115145 11 292 11.3 27.4 0.00 0.00 0.00 24 1009.8
20260506114327 11 290 9.7 27.4 0.00 0.00 0.00 25 1009.7
20260506113405 11 259 8.0 20.9 0.00 0.00 0.00 25 1009.7
20260506112510 11 249 9.7 24.1 0.00 0.00 0.00 25 1009.7
20260506111610 10 229 9.7 19.3 0.00 0.00 0.00 26 1010.0
20260506110645 10 279 8.0 19.3 0.00 0.00 0.00 26 1010.1
20260506105743 10 282 11.3 27.4 0.00 0.00 0.00 26 1010.2
20260506104840 10 298 8.0 24.1 0.00 0.00 0.00 26 1009.8
20260506103944 10 283 6.4 22.5 0.00 0.00 0.00 27 1009.9
20260506103040 10 247 9.7 33.8 0.00 0.00 0.00 28 1010.1
20260506102200 10 230 6.4 17.7 0.00 0.00 0.00 28 1010.2
20260506101336 10 264 8.0 17.7 0.00 0.00 0.00 29 1010.4
20260506100415 10 268 8.0 22.5 0.00 0.00 0.00 29 1010.2
20260506095509 10 321 6.4 16.1 0.00 0.00 0.00 28 1010.3
20260506094610 8 312 11.3 24.1 0.00 0.00 0.00 29 1010.3
20260506093805 10 256 6.4 22.5 0.00 0.00 0.00 30 1009.9
20260506092835 10 252 6.4 22.5 0.00 0.00 0.00 30 1009.7
20260506091920 8 244 8.0 19.3 0.00 0.00 0.00 31 1010.5
20260506091028 8 292 8.0 22.5 0.00 0.00 0.00 32 1010.7
20260506090055 8 308 9.7 22.5 0.00 0.00 0.00 34 1010.5
20260506085155 8 282 8.0 22.5 0.00 0.00 0.00 34 1010.6
20260506084240 8 298 6.4 24.1 0.00 0.00 0.00 36 1010.4
20260506083420 8 290 6.4 16.1 0.00 0.00 0.00 37 1010.7
20260506082550 8 263 11.3 27.4 0.00 0.00 0.00 38 1010.6
20260506081632 8 305 8.0 22.5 0.00 0.00 0.00 37 1010.4
20260506080720 8 288 8.0 22.5 0.00 0.00 0.00 38 1010.7
20260506073112 7 271 9.7 20.9 0.00 0.00 0.00 42 1010.4
20260506072235 7 288 6.4 17.7 0.00 0.00 0.00 44 1010.3
20260506071322 7 272 8.0 25.7 0.00 0.00 0.00 45 1010.4
20260506070420 7 281 11.3 25.7 0.00 0.00 0.00 45 1010.4
20260506061850 6 278 6.4 16.1 0.00 0.00 0.00 49 1010.4
20260506060925 6 267 6.4 16.1 0.00 0.00 0.00 52 1010.5
20260506050631 5 293 6.4 17.7 0.00 0.00 0.00 61 1010.5
20260506044910 3 270 8.0 16.1 0.00 0.00 0.00 63 1010.5
20260506044025 3 284 8.0 16.1 0.00 0.00 0.00 65 1010.5
20260506043114 3 280 6.4 16.1 0.00 0.00 0.00 65 1010.6
20260506042135 3 278 6.4 16.1 0.00 0.00 0.00 66 1010.6
20260506041205 2 273 6.4 12.9 0.00 0.00 0.00 68 1010.7
20260506040250 2 262 4.8 11.3 0.00 0.00 0.00 70 1010.8
20260506035410 1 238 4.8 12.9 0.00 0.00 0.00 71 1010.8
20260506034452 1 225 4.8 9.7 0.00 0.00 0.00 72 1010.8
20260506033540 1 215 3.2 6.4 0.00 0.00 0.00 72 1010.7
20260506032655 1 211 3.2 4.8 0.00 0.00 0.00 72 1010.7
20260506031735 1 213 3.2 6.4 0.00 0.00 0.00 72 1010.6
20260506030850 1 222 3.2 8.0 0.00 0.00 0.00 72 1010.5
20260506025948 0 252 3.2 6.4 0.00 0.00 0.00 72 1010.4
20260506025015 0 250 3.2 6.4 0.00 0.00 0.00 72 1010.4
20260506024130 0 229 4.8 8.0 0.00 0.00 0.00 72 1010.3
20260506023230 0 223 4.8 8.0 0.00 0.00 0.00 73 1010.2
20260506022329 0 220 3.2 6.4 0.00 0.00 0.00 72 1010.2
20260506021447 0 206 3.2 6.4 0.00 0.00 0.00 71 1010.0
20260506020555 1 213 3.2 6.4 0.00 0.00 0.00 71 1009.9
20260506015610 1 254 3.2 8.0 0.00 0.00 0.00 71 1009.9
20260506014705 1 269 3.2 8.0 0.00 0.00 0.00 71 1009.8
20260506013740 1 268 4.8 8.0 0.00 0.00 0.00 70 1009.7
20260506012830 1 267 4.8 9.7 0.00 0.00 0.00 70 1009.7
20260506011940 1 264 6.4 14.5 0.00 0.00 0.00 70 1009.7
20260506011030 1 265 6.4 11.3 0.00 0.00 0.00 70 1009.6
20260506010130 1 264 6.4 11.3 0.00 0.00 0.00 70 1009.5
20260506005235 1 261 6.4 11.3 0.00 0.00 0.00 70 1009.4
20260506004335 1 259 6.4 14.5 0.00 0.00 0.00 69 1009.3
20260506003444 1 253 4.8 11.3 0.00 0.00 0.00 69 1009.2
20260506002555 1 250 4.8 11.3 0.00 0.00 0.00 69 1009.1
20260506001705 1 253 4.8 9.7 0.00 0.00 0.00 68 1009.1
20260506000745 1 247 4.8 8.0 0.00 0.00 0.00 68 1008.9
20260505235835 1 254 6.4 11.3 0.00 0.00 0.00 67 1008.8
20260505234955 2 253 4.8 9.7 0.00 0.00 0.00 67 1008.7
20260505234120 2 258 6.4 9.7 0.00 0.00 0.00 66 1008.6
20260505233149 2 262 8.0 14.5 0.00 0.00 0.00 66 1008.4
20260505232250 2 261 6.4 12.9 0.00 0.00 0.00 65 1008.4
20260505231355 2 264 6.4 9.7 0.00 0.00 0.00 65 1008.3
20260505230435 2 268 6.4 11.3 0.00 0.00 0.00 64 1008.3
20260505225535 2 268 6.4 14.5 0.00 0.00 0.00 63 1008.1
20260505224640 2 278 4.8 12.9 0.00 0.00 0.00 63 1008.0
20260505223735 2 269 6.4 12.9 0.00 0.00 0.00 62 1007.9
20260505222840 2 270 6.4 12.9 0.00 0.00 0.00 62 1007.9
20260505221955 3 269 6.4 12.9 0.00 0.00 0.00 61 1007.8
20260505221120 3 272 6.4 12.9 0.00 0.00 0.00 61 1007.8
20260505220230 3 270 6.4 12.9 0.00 0.00 0.00 60 1007.7
20260505215340 3 268 6.4 16.1 0.00 0.00 0.00 60 1007.7
20260505214450 3 269 8.0 16.1 0.00 0.00 0.00 59 1007.5
20260505213531 3 267 6.4 17.7 0.00 0.00 0.00 58 1007.4
20260505212640 3 268 6.4 12.9 0.00 0.00 0.00 58 1007.3
20260505211810 3 267 6.4 12.9 0.00 0.00 0.00 58 1007.3
20260505210915 3 264 4.8 9.7 0.00 0.00 0.00 57 1007.2
20260505210006 4 268 6.4 11.3 0.00 0.00 0.00 56 1007.0
20260505205110 4 270 6.4 12.9 0.00 0.00 0.00 55 1006.9
20260505204156 5 272 6.4 12.9 0.00 0.00 0.00 54 1006.6
20260505203325 5 269 6.4 16.1 0.00 0.00 0.00 54 1006.4
20260505202434 5 268 6.4 12.9 0.00 0.00 0.00 53 1006.3
20260505201520 5 269 6.4 16.1 0.00 0.00 0.00 53 1006.2
20260505200615 5 273 8.0 12.9 0.00 0.00 0.00 52 1006.1
20260505195705 5 271 8.0 16.1 0.00 0.00 0.00 51 1005.9
20260505194800 5 272 6.4 12.9 0.00 0.00 0.00 50 1005.7
20260505193930 6 271 8.0 20.9 0.00 0.00 0.00 50 1005.6
20260505193020 6 266 8.0 20.9 0.00 0.00 0.00 49 1005.5
20260505192120 6 264 11.3 27.4 0.00 0.00 0.00 48 1005.4
20260505191218 6 263 9.7 17.7 0.00 0.00 0.00 47 1005.2
20260505190302 6 264 9.7 17.7 0.00 0.00 0.00 46 1005.0
20260505185420 6 261 9.7 20.9 0.00 0.00 0.00 45 1004.9
20260505184600 6 258 9.7 22.5 0.00 0.00 0.00 45 1004.8
20260505183705 7 257 9.7 24.1 0.00 0.00 0.00 44 1004.6
20260505182815 7 267 9.7 17.7 0.00 0.00 0.00 43 1004.4
20260505181910 7 264 9.7 20.9 0.00 0.00 0.00 42 1004.1
20260505181010 7 263 11.3 22.5 0.00 0.00 0.00 42 1003.9
20260505180130 8 267 9.7 17.7 0.00 0.00 0.00 42 1003.7
20260505175310 8 273 11.3 24.1 0.00 0.00 0.00 41 1003.6
20260505174430 8 260 12.9 24.1 0.00 0.00 0.00 40 1003.4
20260505173605 8 262 14.5 30.6 0.00 0.00 0.00 40 1003.3
20260505172650 8 267 9.7 19.3 0.00 0.00 0.00 39 1003.1
20260505171815 8 265 12.9 22.5 0.00 0.00 0.00 40 1003.0
20260505170910 9 262 8.0 20.9 0.00 0.00 0.00 39 1002.9
20260505170025 9 259 9.7 20.9 0.00 0.00 0.00 39 1002.9
20260505165120 8 269 14.5 30.6 0.00 0.00 0.00 38 1002.8
20260505164156 10 276 12.9 33.8 0.00 0.00 0.00 36 1002.5
20260505163255 10 276 14.5 33.8 0.00 0.00 0.00 34 1002.4
20260505162409 10 276 11.3 27.4 0.00 0.00 0.00 33 1002.2
20260505161530 10 264 11.3 27.4 0.00 0.00 0.00 32 1002.1
20260505160625 10 259 16.1 38.6 0.00 0.00 0.00 35 1002.1
20260505153003 10 258 16.1 35.4 0.00 0.00 0.00 33 1001.5
20260505152110 11 272 12.9 29.0 0.00 0.00 0.00 32 1001.3
20260505151215 11 280 11.3 24.1 0.00 0.00 0.00 33 1001.4
20260505150240 10 286 6.4 19.3 0.00 0.00 0.00 34 1001.5